Location: A O Calhoun Middle School
(33.2198°N, 97.1397°W)
Time: 06:16:08
(UTC+00:00)

DELTA 2 R/B (1) - Pass Details

Date: 05 July 2022
Orbit: 790 x 803 km, 39.6° (Epoch: 09 August)

Event Time Altitude Azimuth Distance (km) Brightness Sun altitude
Rises 03:01:48 0° 286° (WNW) 3,290 8.0 -14.7°
Reaches altitude 10° 03:04:35 10° 275° (W) 2,361 6.8 -15.1°
Maximum altitude 03:09:16 28° 217° (SW) 1,455 4.9 -15.9°
Enters shadow 03:12:17 18° 172° (S) 1,885 5.1 -16.3°
